Change the Weather History Date:

Monday, July 28, 2014

  Actual Average Record
Temperature  
Mean Temperature 73 °F -  
Max Temperature 78 °F 77 °F 90 °F (1999)
Min Temperature 68 °F 63 °F 44 °F (2001)
Cooling Degree Days 8    
Growing Degree Days 23 (Base 50)    
Moisture  
Dew Point 70 °F    
Average Humidity 94    
Maximum Humidity 100    
Minimum Humidity 84    
Precipitation  
Precipitation 0.02 in - - ()
Sea Level Pressure  
Sea Level Pressure 29.61 in    
Wind  
Wind Speed 11 mph (South)    
Max Wind Speed 18 mph    
Max Gust Speed 26 mph    
Visibility 5 miles    
Events Fog , Rain    
Averages and records for this station are not official NWS values.
T = Trace of Precipitation, MM = Missing Value Source: NWS Daily Summary

Daily Weather History Graph

Daily Weather History Graph

Search for Another Location

Airport or City:

Trip Planner

Search our weather history database for the weather conditions in past years. The results will help you decide how hot, cold, wet, or windy it might be!

Date:

Astronomy

Jul. 28, 2014 Rise Set
Actual Time 5:33 AM EDT 8:03 PM EDT
Civil Twilight 5:01 AM EDT 8:35 PM EDT
Nautical Twilight 4:22 AM EDT 9:14 PM EDT
Astronomical Twilight 3:38 AM EDT 9:58 PM EDT
Moon 7:13 AM EDT (7/28) 8:41 PM EDT (7/28)
Length of Visible Light 15h 33m
Length of Day
14h 30m
Waxing Crescent, 3% of the Moon is Illuminated
Jul 28
Waxing Crescent
Aug 3
First Quarter
Aug 10
Full
Aug 17
Last Quarter
Aug 25
New

Hourly Weather History & Observations

Time (EDT) Temp. Dew Point Humidity Pressure Visibility Wind Dir Wind Speed Gust Speed Precip Events Conditions
12:53 AM 71.1 °F 68.0 °F 90% 29.71 in 7.0 mi SSW 8.1 mph - N/A   Clear
1:53 AM 68.0 °F 66.9 °F 96% 29.68 in 6.0 mi SSW 5.8 mph - N/A   Clear
2:48 AM 69.8 °F 69.8 °F 100% 29.67 in 6.0 mi South 6.9 mph - N/A   Scattered Clouds
2:53 AM 69.1 °F 69.1 °F 100% 29.67 in 6.0 mi South 8.1 mph - N/A   Mostly Cloudy
3:37 AM 69.1 °F 69.1 °F 100% 29.67 in 1.8 mi South 9.2 mph - N/A   Overcast
3:53 AM 69.1 °F 69.1 °F 100% 29.67 in 0.8 mi South 8.1 mph - N/A   Overcast
4:16 AM 69.1 °F 69.1 °F 100% 29.66 in 1.2 mi South 10.4 mph - N/A   Overcast
4:28 AM 69.1 °F 69.1 °F 100% 29.66 in 0.8 mi South 11.5 mph - N/A   Mist
4:53 AM 69.1 °F 69.1 °F 100% 29.66 in 0.5 mi South 10.4 mph - N/A Fog Fog
5:53 AM 70.0 °F 70.0 °F 100% 29.65 in 0.2 mi SSE 10.4 mph - N/A Fog Fog
6:11 AM 70.0 °F 70.0 °F 100% 29.65 in 1.0 mi South 11.5 mph - N/A   Overcast
6:24 AM 70.0 °F 70.0 °F 100% 29.64 in 2.0 mi SSE 12.7 mph - N/A   Overcast
6:32 AM 70.0 °F 70.0 °F 100% 29.64 in 1.2 mi SSE 12.7 mph - N/A   Overcast
6:44 AM 71.1 °F 71.1 °F 100% 29.64 in 0.8 mi South 15.0 mph 20.7 mph N/A   Overcast
6:53 AM 71.1 °F 71.1 °F 100% 29.63 in 1.2 mi South 12.7 mph - N/A   Overcast
7:08 AM 70.0 °F 70.0 °F 100% 29.64 in 0.5 mi South 11.5 mph - N/A Fog Fog
7:29 AM 70.0 °F 70.0 °F 100% 29.63 in 1.5 mi South 12.7 mph - N/A   Overcast
7:34 AM 70.0 °F 70.0 °F 100% 29.63 in 3.0 mi South 13.8 mph - N/A   Overcast
7:53 AM 69.1 °F 69.1 °F 100% 29.63 in 3.0 mi SSE 15.0 mph - N/A   Overcast
8:53 AM 71.1 °F 71.1 °F 100% 29.60 in 3.0 mi SSE 16.1 mph 23.0 mph 0.02 in Rain Light Rain
10:13 AM 72.0 °F 71.1 °F 97% 29.59 in 1.8 mi South 16.1 mph - N/A   Overcast
10:18 AM 72.0 °F 71.1 °F 97% 29.59 in 3.0 mi South 17.3 mph 23.0 mph N/A   Overcast
10:49 AM 71.6 °F 69.8 °F 94% 29.59 in 8.0 mi SSW 16.1 mph - N/A   Mostly Cloudy
10:50 AM 72.0 °F 69.1 °F 91% 29.59 in 8.0 mi SSW 15.0 mph - N/A   Mostly Cloudy
11:53 AM 71.1 °F 66.0 °F 84% 29.59 in 10.0 mi SSW 6.9 mph - 0.00 in   Overcast
12:10 PM 72.0 °F 68.0 °F 87% 29.58 in 10.0 mi South 6.9 mph - N/A   Overcast
12:53 PM 75.0 °F 71.1 °F 87% 29.55 in 10.0 mi South 16.1 mph 25.3 mph N/A   Mostly Cloudy
1:57 PM 77.0 °F 72.0 °F 84% 29.54 in 10.0 mi South 18.4 mph 23.0 mph N/A   Mostly Cloudy
2:07 PM 77.0 °F 72.0 °F 84% 29.53 in 10.0 mi South 18.4 mph 25.3 mph N/A   Mostly Cloudy
2:28 PM 78.1 °F 73.0 °F 84% 29.53 in 8.0 mi South 15.0 mph - N/A   Mostly Cloudy
3:00 PM 78.1 °F 73.0 °F 84% 29.53 in 8.0 mi SSW 15.0 mph 21.9 mph N/A   Mostly Cloudy
3:53 PM 75.9 °F 72.0 °F 87% 29.52 in 8.0 mi SW 16.1 mph 24.2 mph N/A   Overcast
4:53 PM 75.0 °F 71.1 °F 87% 29.52 in 8.0 mi SW 15.0 mph - N/A   Overcast
5:22 PM 75.0 °F 70.0 °F 84% 29.53 in 10.0 mi SW 16.1 mph 26.5 mph N/A   Scattered Clouds
5:53 PM 73.9 °F 69.1 °F 85% 29.54 in 10.0 mi SW 11.5 mph 21.9 mph N/A   Clear
6:53 PM 72.0 °F 68.0 °F 87% 29.55 in 10.0 mi SW 13.8 mph 21.9 mph N/A   Clear
7:53 PM 71.1 °F 69.1 °F 93% 29.56 in 8.0 mi SSW 15.0 mph - N/A   Clear
8:53 PM 70.0 °F 69.1 °F 97% 29.57 in 8.0 mi SSW 13.8 mph - N/A   Clear
9:53 PM 71.1 °F 66.9 °F 87% 29.59 in 10.0 mi SW 13.8 mph - N/A   Clear
11:53 PM 69.1 °F 66.0 °F 90% 29.59 in 10.0 mi SW 10.4 mph - N/A   Clear